EW1645 Weather Reports


time (UTC)temp
C
wind
direction
speed
KPH
gust
KPH
rain 1hr
cm
rain 24hr
cm
rain mn
cm
humidity
%
barometer
mb
20260502163527 13 44 3.2 4.8 0.00 0.00 0.00 40 1014.9
20260502163027 14 73 3.2 4.8 0.00 0.00 0.00 40 1014.8
20260502162528 13 169 0.0 1.6 0.00 0.00 0.00 43 1015.0
20260502162027 13 65 1.6 4.8 0.00 0.00 0.00 43 1015.0
20260502161026 13 228 4.8 12.9 0.00 0.00 0.00 40 1015.3
20260502160527 13 46 1.6 3.2 0.00 0.00 0.00 45 1015.3
20260502151026 11 316 1.6 4.8 0.00 0.00 0.00 50 1015.6
20260502150528 11 303 1.6 3.2 0.00 0.00 0.00 51 1015.5
20260502130527 8 15 1.6 4.8 0.00 0.00 0.00 52 1015.6
20260502123526 9 97 1.6 3.2 0.00 0.00 0.00 55 1015.3
20260502123026 8 224 0.0 1.6 0.00 0.00 0.00 54 1015.3
20260502122527 8 210 0.0 1.6 0.00 0.00 0.00 53 1015.4
20260502121527 8 222 0.0 3.2 0.00 0.00 0.00 53 1015.4
20260502121026 8 255 0.0 1.6 0.00 0.00 0.00 54 1015.4
20260502120526 8 300 0.0 3.2 0.00 0.00 0.00 54 1015.4
20260502115526 8 160 1.6 4.8 0.00 0.00 0.00 52 1015.1
20260502115026 8 302 1.6 3.2 0.00 0.00 0.00 53 1015.1
20260502114026 8 276 0.0 0.0 0.00 0.00 0.00 53 1015.0
20260502113526 8 277 0.0 1.6 0.00 0.00 0.00 54 1014.9
20260502113027 8 236 0.0 1.6 0.00 0.00 0.00 52 1014.7
20260502111526 8 263 1.6 4.8 0.00 0.00 0.00 50 1014.9
20260502111026 8 333 0.0 3.2 0.00 0.00 0.00 49 1014.8
20260502110526 8 292 0.0 3.2 0.00 0.00 0.00 51 1014.9
20260502110026 8 321 0.0 1.6 0.00 0.00 0.00 51 1014.8
20260502105526 8 333 0.0 3.2 0.00 0.00 0.00 50 1014.7
20260502104026 8 250 0.0 3.2 0.00 0.00 0.00 49 1014.8
20260502103527 8 139 1.6 3.2 0.00 0.00 0.00 49 1014.8
20260502103026 8 285 1.6 9.7 0.00 0.00 0.00 49 1014.8
20260502101025 9 259 1.6 4.8 0.00 0.00 0.00 50 1014.9
20260502100527 9 261 1.6 4.8 0.00 0.00 0.00 50 1014.9
20260502091525 9 268 4.8 16.1 0.00 0.00 0.00 54 1014.8
20260502091026 10 346 1.6 4.8 0.00 0.00 0.00 56 1014.8
20260502090526 10 256 0.0 4.8 0.00 0.00 0.00 55 1014.8
20260502071525 10 356 1.6 8.0 0.00 0.00 0.00 65 1014.3
20260502071026 10 258 1.6 4.8 0.00 0.00 0.00 64 1014.3
20260502070525 10 274 1.6 9.7 0.00 0.00 0.00 65 1014.3
20260502070025 10 348 0.0 3.2 0.00 0.00 0.00 66 1014.3
20260502065025 10 230 1.6 3.2 0.00 0.00 0.00 66 1014.4
20260502064526 10 33 1.6 3.2 0.00 0.00 0.00 65 1014.4
20260502063526 10 26 1.6 3.2 0.00 0.00 0.00 65 1014.4
20260502062525 10 66 0.0 0.0 0.00 0.00 0.00 65 1014.6
20260502062025 10 63 0.0 0.0 0.00 0.00 0.00 65 1014.6
20260502061026 11 62 0.0 0.0 0.00 0.00 0.00 64 1014.6
20260502060525 11 87 0.0 0.0 0.00 0.00 0.00 65 1014.7
20260502060025 11 80 0.0 3.2 0.00 0.00 0.00 65 1014.7
20260502055525 11 324 0.0 0.0 0.00 0.00 0.00 64 1014.7
20260502055025 11 326 0.0 1.6 0.00 0.00 0.00 64 1014.7
20260502054525 11 350 0.0 1.6 0.00 0.00 0.00 63 1014.5
20260502054026 11 15 0.0 0.0 0.00 0.00 0.00 64 1014.5
20260502053525 11 29 0.0 0.0 0.00 0.00 0.00 63 1014.5
20260502053025 11 29 0.0 1.6 0.00 0.00 0.00 62 1014.5
20260502052525 11 29 0.0 3.2 0.00 0.00 0.00 62 1014.5
20260502052025 11 28 0.0 1.6 0.00 0.00 0.00 62 1014.5
20260502051526 11 27 0.0 1.6 0.00 0.00 0.00 63 1014.5
20260502051025 11 25 1.6 1.6 0.00 0.00 0.00 62 1014.5
20260502050525 12 38 1.6 3.2 0.00 0.00 0.00 62 1014.5
20260502050026 12 29 1.6 3.2 0.00 0.00 0.00 63 1014.5
20260502045025 12 29 1.6 3.2 0.00 0.00 0.00 64 1014.5
20260502044525 12 33 1.6 3.2 0.00 0.00 0.00 64 1014.6
20260502044025 12 30 0.0 4.8 0.00 0.00 0.00 63 1014.6
20260502043526 12 355 1.6 4.8 0.00 0.00 0.00 62 1014.5
20260502043025 12 24 1.6 3.2 0.00 0.00 0.00 62 1014.4
20260502042525 12 24 1.6 8.0 0.00 0.00 0.00 62 1014.4
20260502042025 12 28 1.6 4.8 0.00 0.00 0.00 63 1014.3
20260502041526 12 38 0.0 4.8 0.00 0.00 0.00 63 1014.3
20260502041025 12 59 3.2 11.3 0.00 0.00 0.00 63 1014.3
20260502040525 12 351 1.6 3.2 0.00 0.00 0.00 63 1014.2
20260502040025 13 36 0.0 3.2 0.00 0.00 0.00 64 1014.3
20260502035525 13 259 0.0 1.6 0.00 0.00 0.00 61 1014.2
20260502035025 13 6 1.6 4.8 0.00 0.00 0.00 62 1014.2
20260502034525 13 35 1.6 4.8 0.00 0.00 0.00 61 1014.2
20260502034024 13 61 1.6 4.8 0.00 0.00 0.00 61 1014.2
20260502033526 13 269 0.0 1.6 0.00 0.00 0.00 59 1014.2
20260502033025 13 270 0.0 1.6 0.00 0.00 0.00 59 1014.2
20260502032525 13 226 0.0 3.2 0.00 0.00 0.00 58 1014.1
20260502032026 13 238 1.6 4.8 0.00 0.00 0.00 57 1014.0
20260502031526 14 249 1.6 4.8 0.00 0.00 0.00 57 1014.0
20260502031026 14 295 1.6 4.8 0.00 0.00 0.00 55 1013.8
20260502030526 14 314 1.6 4.8 0.00 0.00 0.00 55 1013.6
20260502030025 15 228 1.6 8.0 0.00 0.00 0.00 55 1013.6
20260502025024 15 251 1.6 4.8 0.00 0.00 0.00 53 1013.7
20260502024525 15 292 3.2 4.8 0.00 0.00 0.00 52 1013.6
20260502024024 15 359 1.6 8.0 0.00 0.00 0.00 52 1013.5
20260502023524 15 161 1.6 8.0 0.00 0.00 0.00 53 1013.4
20260502023026 15 309 1.6 8.0 0.00 0.00 0.00 52 1013.2
20260502022525 15 99 0.0 3.2 0.00 0.00 0.00 55 1013.0
20260502022025 15 208 1.6 4.8 0.00 0.00 0.00 55 1012.9
20260502021525 15 248 1.6 4.8 0.00 0.00 0.00 56 1012.8
20260502021024 15 257 1.6 8.0 0.00 0.00 0.00 56 1012.7
20260502020524 15 235 1.6 9.7 0.00 0.00 0.00 57 1012.4
20260502015025 14 244 0.0 1.6 0.00 0.00 0.00 63 1012.2
20260502014525 14 100 1.6 3.2 0.00 0.00 0.00 60 1012.1
20260502014025 14 205 0.0 0.0 0.00 0.00 0.00 60 1012.1
20260502012025 14 204 0.0 0.0 0.00 0.00 0.00 62 1011.9
20260502011024 14 204 0.0 0.0 0.00 0.00 0.00 61 1011.9
20260502010525 14 214 0.0 0.0 0.00 0.00 0.00 62 1011.8
20260502010025 14 214 0.0 0.0 0.00 0.00 0.00 60 1011.8
20260502005525 15 214 0.0 0.0 0.00 0.00 0.00 59 1011.8
20260502005026 15 214 0.0 1.6 0.00 0.00 0.00 59 1011.6
20260502004524 15 119 1.6 4.8 0.00 0.00 0.00 55 1011.4
20260502004025 15 227 0.0 1.6 0.00 0.00 0.00 58 1011.4
20260502003524 15 232 0.0 0.0 0.00 0.00 0.00 54 1011.3
20260502003024 15 233 0.0 0.0 0.00 0.00 0.00 55 1011.4
20260502002524 16 266 0.0 1.6 0.00 0.00 0.00 55 1011.3
20260502002024 16 269 0.0 3.2 0.00 0.00 0.00 54 1011.1
20260502001024 16 283 3.2 9.7 0.00 0.00 0.00 52 1010.9
20260502000525 16 276 3.2 9.7 0.00 0.00 0.00 52 1010.8
20260502000024 16 350 1.6 9.7 0.00 0.00 0.00 53 1010.6
20260501235525 16 81 0.0 3.2 0.00 0.00 0.00 54 1010.4
20260501235024 16 310 1.6 9.7 0.00 0.00 0.00 51 1010.3
20260501234524 16 259 1.6 4.8 0.00 0.00 0.00 51 1010.2
20260501234024 16 292 4.8 16.1 0.00 0.00 0.00 51 1010.2
20260501233025 17 152 1.6 4.8 0.00 0.00 0.00 51 1010.2
20260501232524 17 237 3.2 8.0 0.00 0.00 0.00 50 1010.3
20260501232025 17 346 1.6 8.0 0.00 0.00 0.00 50 1010.3
20260501231524 17 62 1.6 4.8 0.00 0.00 0.00 49 1010.3
20260501231024 17 139 3.2 16.1 0.00 0.00 0.00 49 1010.3
20260501230524 17 51 1.6 8.0 0.00 0.00 0.00 49 1010.3
20260501230024 18 274 3.2 8.0 0.00 0.00 0.00 48 1010.4
20260501225524 18 75 3.2 9.7 0.00 0.00 0.00 47 1010.3
20260501224524 18 142 3.2 11.3 0.00 0.00 0.00 45 1010.4
20260501224024 19 158 1.6 8.0 0.00 0.00 0.00 45 1010.3
20260501223524 19 218 3.2 9.7 0.00 0.00 0.00 45 1010.4
20260501223024 20 268 3.2 9.7 0.00 0.00 0.00 44 1010.3
20260501222525 20 86 1.6 12.9 0.00 0.00 0.00 44 1010.3
20260501222024 20 239 1.6 8.0 0.00 0.00 0.00 44 1010.4
20260501221024 19 128 1.6 8.0 0.00 0.00 0.00 45 1010.5
20260501220524 19 114 1.6 4.8 0.00 0.00 0.00 45 1010.5
20260501215524 19 275 1.6 4.8 0.00 0.00 0.00 45 1010.5
20260501215024 19 298 3.2 4.8 0.00 0.00 0.00 44 1010.6
20260501214525 20 125 1.6 4.8 0.00 0.00 0.00 42 1010.7
20260501214024 20 111 0.0 4.8 0.00 0.00 0.00 43 1010.8
20260501213524 20 33 1.6 4.8 0.00 0.00 0.00 44 1010.7
20260501213025 20 118 1.6 9.7 0.00 0.00 0.00 44 1010.8
20260501212525 20 263 3.2 4.8 0.00 0.00 0.00 43 1010.8
20260501211523 20 114 3.2 4.8 0.00 0.00 0.00 43 1010.9
20260501211024 20 101 1.6 4.8 0.00 0.00 0.00 43 1010.9
20260501210024 20 173 3.2 8.0 0.00 0.00 0.00 44 1010.9
20260501205524 20 36 3.2 8.0 0.00 0.00 0.00 43 1011.0
20260501205024 20 72 3.2 4.8 0.00 0.00 0.00 43 1011.1
20260501204524 20 236 1.6 8.0 0.00 0.00 0.00 42 1011.1
20260501204024 20 211 3.2 8.0 0.00 0.00 0.00 41 1011.2
20260501203524 20 48 1.6 9.7 0.00 0.00 0.00 43 1011.2
20260501203024 20 343 3.2 4.8 0.00 0.00 0.00 41 1011.3
20260501202524 20 14 1.6 12.9 0.00 0.00 0.00 42 1011.3
20260501202024 20 225 3.2 8.0 0.00 0.00 0.00 41 1011.4
20260501201524 20 305 3.2 8.0 0.00 0.00 0.00 41 1011.5
20260501201024 20 110 1.6 8.0 0.00 0.00 0.00 44 1011.5
20260501200523 20 335 1.6 9.7 0.00 0.00 0.00 44 1011.6
20260501200024 20 157 3.2 12.9 0.00 0.00 0.00 42 1011.9
20260501195024 20 124 3.2 8.0 0.00 0.00 0.00 43 1011.9
20260501194523 20 328 3.2 8.0 0.00 0.00 0.00 41 1012.1
20260501194024 20 114 3.2 8.0 0.00 0.00 0.00 41 1012.3
20260501193523 20 58 1.6 4.8 0.00 0.00 0.00 40 1012.4
20260501193025 20 119 3.2 4.8 0.00 0.00 0.00 41 1012.5
20260501192523 20 33 3.2 14.5 0.00 0.00 0.00 41 1012.6
20260501191523 20 269 1.6 4.8 0.00 0.00 0.00 41 1012.7
20260501191024 20 136 3.2 11.3 0.00 0.00 0.00 40 1012.8
20260501185525 20 244 3.2 4.8 0.00 0.00 0.00 41 1013.0
20260501185023 20 81 3.2 9.7 0.00 0.00 0.00 42 1013.0
20260501184524 19 209 3.2 14.5 0.00 0.00 0.00 42 1013.1
20260501184023 19 116 3.2 12.9 0.00 0.00 0.00 41 1013.1
20260501183024 19 99 1.6 4.8 0.00 0.00 0.00 45 1013.3
20260501182025 19 254 3.2 9.7 0.00 0.00 0.00 44 1013.6
20260501181523 19 97 3.2 9.7 0.00 0.00 0.00 43 1013.6
20260501181024 18 274 3.2 9.7 0.00 0.00 0.00 42 1013.7
20260501180523 18 150 3.2 9.7 0.00 0.00 0.00 43 1013.8
20260501180023 18 263 3.2 4.8 0.00 0.00 0.00 44 1014.0
20260501175523 18 283 3.2 8.0 0.00 0.00 0.00 43 1014.0
20260501174524 18 97 1.6 4.8 0.00 0.00 0.00 45 1014.2
20260501174024 17 172 1.6 11.3 0.00 0.00 0.00 44 1014.3
20260501173523 18 48 3.2 12.9 0.00 0.00 0.00 43 1014.1